This is the latest recevied weather packets stored in our database for station/object WC4PEM-9. If no packets are shown the sender has not sent any weather packets the latest 1 day(s).
| Time | Temp. | Humidity | Pressure | Rain* | Wind** | Luminosity | Snow |
|---|---|---|---|---|---|---|---|
| 1778045769 | 17.22° C | 91% | 1016 hPa | 0 mm | 0.45 m/s, 93° | - | - |
| 1778045606 | 17.22° C | 91% | 1015.9 hPa | 0 mm | 0.45 m/s, 137° | - | - |
| 1778045440 | 17.22° C | 91% | 1016 hPa | 0 mm | 0.45 m/s, 93° | - | - |
| 1778045306 | 17.22° C | 91% | 1016 hPa | 0 mm | 0.45 m/s, 93° | - | - |
| 1778045006 | 17.22° C | 90% | 1016.1 hPa | 0 mm | 0.45 m/s, 265° | - | - |
| 1778045004 | 17.78° C | 90% | 1016.2 hPa | 0 mm | 0.45 m/s, 221° | - | - |
| 1778044706 | 17.78° C | 90% | 1016.1 hPa | 0 mm | 0.45 m/s, 137° | - | - |
| 1778044406 | 17.78° C | 90% | 1016.2 hPa | 0 mm | 0.45 m/s, 221° | - | - |
| 1778044106 | 17.78° C | 89% | 1016.3 hPa | 0 mm | 0.45 m/s, 137° | - | - |
| 1778043806 | 17.78° C | 89% | 1016 hPa | 0 mm | 0 m/s | - | - |
| 1778043506 | 17.78° C | 89% | 1016.4 hPa | 0 mm | 0 m/s | - | - |
| 1778043206 | 17.78° C | 89% | 1016.4 hPa | 0 mm | 0 m/s | - | - |
| 1778042906 | 17.78° C | 88% | 1016.1 hPa | 0 mm | 0.45 m/s, 265° | - | - |
| 1778042835 | 18.33° C | 88% | 1016.4 hPa | 0 mm | 0.45 m/s, 120° | - | - |
| 1778042606 | 18.33° C | 88% | 1016.4 hPa | 0 mm | 0.45 m/s, 120° | - | - |
| 1778042369 | 18.33° C | 88% | 1016.5 hPa | 0 mm | 0.45 m/s, 51° | - | - |
| 1778042306 | 18.33° C | 88% | 1016.4 hPa | 0 mm | 0.45 m/s, 9° | - | - |
| 1778042006 | 18.33° C | 88% | 1016.5 hPa | 0 mm | 0.45 m/s, 51° | - | - |
| 1778041706 | 18.33° C | 88% | 1016.5 hPa | 0 mm | 0.45 m/s, 165° | - | - |
| 1778041559 | 18.33° C | 88% | 1016 hPa | 0 mm | 0.89 m/s, 126° | - | - |
| 1778041406 | 18.33° C | 88% | 1016.4 hPa | 0 mm | 0.45 m/s, 319° | - | - |
| 1778041106 | 18.33° C | 88% | 1016 hPa | 0 mm | 0.89 m/s, 126° | - | - |
| 1778040806 | 18.33° C | 88% | 1016.1 hPa | 0 mm | 0.89 m/s, 144° | - | - |
| 1778040506 | 18.33° C | 87% | 1016.2 hPa | 0 mm | 0.45 m/s, 158° | - | - |
| 1778040206 | 18.33° C | 87% | 1015.9 hPa | 0 mm | 0.45 m/s, 146° | - | - |
* Rain latest hour (hover to see other rain measurements)
** Current wind speed in m/s (hover to see current wind gust speed)